Regional Weather Roundup
Issued by NWS Little Rock, AR

Home | Current Version | Previous Version | Graphics & Text | Print | Product List | Glossary On
Versions: 1 2 3 4 5 6 7 8 9 10 11 12 13 14 15 16 17 18 19 20 21 22 23 24 25 26 27 28 29 30 31 32 33 34 35 36 37 38 39 40 41 42 43 44 45 46 47 48 49 50
000
ASUS44 KLZK 230205
RWRLZK

WEATHER ROUNDUP FOR ARKANSAS
NATIONAL WEATHER SERVICE LITTLE ROCK AR
900 PM CDT TUE JUL 22 2014

NOTE: "FAIR" INDICATES FEW OR NO CLOUDS BELOW 12,000 FEET WITH NO
SIGNIFICANT WEATHER AND/OR OBSTRUCTIONS TO VISIBILITY.

ARZ001-003-010-029-230300-
NORTHWEST ARKANSAS

CITY           SKY/WX    TMP DP  RH WIND       PRES   REMARKS
FAYETTEVILLE   FAIR      81  74  79 SW6       30.08R HX  86
FORT SMITH     FAIR      85  73  67 S5        30.03S HX  91
HARRISON       FAIR      81  74  79 SE7       30.08R HX  86
BENTONVILLE    FAIR      82  73  74 W3        30.09R HX  88
ROGERS         FAIR      82  75  79 NW3       30.09R HX  89
SILOAM SPGS    FAIR      82  70  65 W3        30.09R HX  86
HIGHFILL       FAIR      83  76  79 NW5       30.08R HX  91
SPRINGDALE     PTCLDY    86  73  66 W7        30.09S HX  93
$$

ARZ004-005-016-230300-
NORTH CENTRAL ARKANSAS

CITY           SKY/WX    TMP DP  RH WIND       PRES   REMARKS
BATESVILLE     FAIR      81  72  74 SE5       30.05S
FLIPPIN        FAIR      81  68  65 CALM      30.06S
MTN HOME       FAIR      79  71  76 CALM      30.05S
$$

ARZ040-041-230300-
WEST CENTRAL ARKANSAS

CITY           SKY/WX    TMP DP  RH WIND       PRES   REMARKS
MENA           FAIR      79  73  83 CALM      30.08S
MOUNT IDA      FAIR      75  73  93 CALM      30.04S
$$

ARZ009-017-025-026-028-230300-
NORTHEAST ARKANSAS

CITY           SKY/WX    TMP DP  RH WIND       PRES   REMARKS
CORNING        FAIR      81  72  74 S5        30.04S
JONESBORO      FAIR      75  69  81 CALM      30.04S
NEWPORT        FAIR      81  72  74 SE7       30.05S HX  85
WALNUT RIDGE   FAIR      81  61  50 S5        30.04R
BLYTHEVILLE    FAIR      78  72  81 NW3       30.04S
$$

ARZ022-023-033-042-044-230300-
CENTRAL ARKANSAS

CITY           SKY/WX    TMP DP  RH WIND       PRES   REMARKS
LITTLE ROCK    MOCLDY    80  70  71 CALM      30.04S
N LITTLE ROCK  MOCLDY    77  72  85 CALM      30.04
JACKSONVILLE   FAIR      77  72  84 NE2       30.04S
SEARCY         FAIR      76  72  87 CALM      30.05S
HOT SPRINGS    FAIR      78  70  76 CALM      30.05S
RUSSELLVILLE   FAIR      78  73  84 CALM      30.04S
CLINTON        FAIR      77  73  88 CALM      30.06R
$$

ARZ036-230300-
EAST ARKANSAS

CITY           SKY/WX    TMP DP  RH WIND       PRES   REMARKS
WEST MEMPHIS   FAIR      76  74  93 CALM      30.03R
$$

ARZ050-053-066-070-073-230300-
SOUTHWEST ARKANSAS

CITY           SKY/WX    TMP DP  RH WIND       PRES   REMARKS
ARKADELPHIA    FAIR      77  74  90 CALM      30.04S
CAMDEN         FAIR      77  72  83 CALM      30.03S
TEXARKANA      FAIR      77  71  82 CALM      30.04F
EL DORADO      FAIR      77  73  87 CALM      30.05R
DE QUEEN       FAIR      77  74  90 CALM      30.03R
$$

ARZ056-057-069-230300-
SOUTHEAST ARKANSAS

CITY           SKY/WX    TMP DP  RH WIND       PRES   REMARKS
PINE BLUFF     FAIR      77  72  84 CALM      30.04S
STUTTGART      FAIR      81  72  74 NW5       30.05R
MONTICELLO     FAIR      77  72  84 CALM      30.04S

$$




USA.gov is the U.S. government's official web portal to all federal, state and local government web resources and services.